Valparaiso, IN

4:54 AM CDT on August 27, 2016 (GMT -0500)
Porter County Municipal

Weather History for KVPZ - December, 2012

Change the Weather History Date:

Sunday, December 30, 2012

  Actual Average Record
Temperature  
Mean Temperature 23 °F 25 °F  
Max Temperature 31 °F 32 °F 56 °F (2002)
Min Temperature 14 °F 18 °F -1 °F (1998)
Degree Days  
Heating Degree Days 42 40  
Month to date heating degree days 848 1103  
Since 1 July heating degree days 2152 2361  
Cooling Degree Days 0 0  
Month to date cooling degree days 0 0  
Year to date cooling degree days 1054 713  
Moisture  
Dew Point 18 °F    
Average Humidity 80    
Maximum Humidity 92    
Minimum Humidity 72    
Precipitation  
Precipitation 0.00 in 0.08 in 0.25 in (2011)
Month to date precipitation 2.10 2.11  
Year to date precipitation 26.29 37.44  
Sea Level Pressure  
Sea Level Pressure 30.30 in    
Wind  
Wind Speed 10 mph (SW)    
Max Wind Speed 17 mph    
Max Gust Speed 21 mph    
Visibility 8 miles    
Events      
T = Trace of Precipitation, MM = Missing Value Source: NWS Daily Summary

Daily Weather History Graph

Daily Weather History Graph

Search for Another Location

Airport or City:

Trip Planner

Search our weather history database for the weather conditions in past years. The results will help you decide how hot, cold, wet, or windy it might be!

Date:

Astronomy

Dec. 30, 2012 Rise Set
Actual Time 7:14 AM CST 4:27 PM CST
Civil Twilight 6:42 AM CST 4:58 PM CST
Nautical Twilight 6:08 AM CST 5:33 PM CST
Astronomical Twilight 5:34 AM CST 6:07 PM CST
Moon 7:00 PM CST (12/30) 8:21 AM CST (12/30)
Length of Visible Light 10h 16m
Length of Day
9h 13m
Waning Gibbous, 95% of the Moon is Illuminated
Dec 30
Waning Gibbous
Jan 4
Last Quarter
Jan 11
New
Jan 18
First Quarter
Jan 26
Full

Hourly Weather History & Observations

Time (CST) Temp. Windchill Dew Point Humidity Pressure Visibility Wind Dir Wind Speed Gust Speed Precip Events Conditions
12:53 AM 21.0 °F 8.6 °F 16.0 °F 81% 30.26 in 9.0 mi West 12.7 mph - N/A   Overcast
1:53 AM 19.9 °F 7.9 °F 15.1 °F 81% 30.27 in 9.0 mi West 11.5 mph - N/A   Overcast
2:53 AM 18.0 °F 4.8 °F 14.0 °F 84% 30.29 in 9.0 mi West 12.7 mph - N/A   Mostly Cloudy
3:09 AM 17.6 °F 7.3 °F 12.2 °F 79% 30.26 in 8.0 mi West 8.1 mph - N/A   Partly Cloudy
3:53 AM 17.1 °F 7.6 °F 12.9 °F 84% 30.32 in 8.0 mi WSW 6.9 mph - N/A   Scattered Clouds
4:53 AM 16.0 °F 3.6 °F 12.9 °F 88% 30.32 in 7.0 mi SW 10.4 mph - N/A   Clear
5:53 AM 15.1 °F 3.3 °F 10.9 °F 84% 30.35 in 7.0 mi SW 9.2 mph - N/A   Clear
6:53 AM 15.1 °F 3.3 °F 10.9 °F 84% 30.36 in 6.0 mi SW 9.2 mph - N/A   Clear
7:53 AM 14.0 °F 6.5 °F 12.0 °F 92% 30.36 in 5.0 mi SSW 4.6 mph - N/A   Clear
8:53 AM 17.1 °F 3.6 °F 12.9 °F 84% 30.38 in 5.0 mi SW 12.7 mph - N/A   Clear
9:53 AM 19.9 °F 11.1 °F 14.0 °F 78% 30.38 in 6.0 mi SW 6.9 mph - N/A   Haze
10:53 AM 23.0 °F 12.4 °F 17.1 °F 78% 30.39 in 6.0 mi SW 10.4 mph - N/A   Haze
11:53 AM 25.0 °F 15.5 °F 19.0 °F 78% 30.34 in 8.0 mi SW 9.2 mph - N/A   Clear
12:53 PM 28.9 °F 19.2 °F 21.0 °F 72% 30.32 in 9.0 mi SSW 11.5 mph - N/A   Clear
1:53 PM 30.0 °F 20.5 °F 21.9 °F 72% 30.31 in 9.0 mi SSW 11.5 mph - N/A   Clear
2:53 PM 30.9 °F 22.8 °F 23.0 °F 72% 30.30 in 9.0 mi SSW 9.2 mph - N/A   Clear
3:53 PM 30.0 °F 22.4 °F 24.1 °F 79% 30.28 in 7.0 mi South 8.1 mph - N/A   Clear
4:53 PM 28.0 °F 20.8 °F 23.0 °F 81% 30.29 in 7.0 mi South 6.9 mph - N/A   Clear
5:53 PM 28.0 °F 19.3 °F 24.1 °F 85% 30.29 in 7.0 mi South 9.2 mph - N/A   Clear
6:53 PM 28.9 °F 18.6 °F 24.1 °F 82% 30.28 in 8.0 mi SSW 12.7 mph - N/A   Clear
7:53 PM 28.0 °F 18.1 °F 21.9 °F 78% 30.24 in 9.0 mi SSW 11.5 mph - N/A   Clear
8:53 PM 27.0 °F 16.7 °F 21.9 °F 81% 30.24 in 10.0 mi SSW 11.5 mph - N/A   Clear
9:53 PM 27.0 °F 16.7 °F 21.0 °F 78% 30.23 in 10.0 mi SSW 11.5 mph - N/A   Clear
10:53 PM 27.0 °F 16.1 °F 21.0 °F 78% 30.21 in 10.0 mi SSW 12.7 mph 19.6 mph N/A   Clear
11:53 PM 27.0 °F 16.7 °F 21.0 °F 78% 30.18 in 10.0 mi SSW 11.5 mph - N/A   Clear